Weather History for KHGR - July, 2012

Change the Weather History Date:

Saturday, July 7, 2012

  Actual Average Record
Temperature  
Mean Temperature 88 °F 76 °F  
Max Temperature 100 °F 85 °F 100 °F (2010)
Min Temperature 76 °F 66 °F 53 °F (2001)
Degree Days  
Heating Degree Days 0 0  
Month to date heating degree days 0 0  
Since 1 June heating degree days 10 18  
Since 1 July heating degree days 0 0  
Cooling Degree Days 23 10  
Month to date cooling degree days 129 70  
Year to date cooling degree days 497 355  
Since 1 June cooling degree days 341 279  
Growing Degree Days 38 (Base 50)    
Moisture  
Dew Point 70 °F    
Average Humidity 60    
Maximum Humidity 87    
Minimum Humidity 33    
Precipitation  
Precipitation 0.00 in 0.08 in 0.89 in (2013)
Month to date precipitation 0.34 0.64  
Year to date precipitation 17.04 20.72  
Sea Level Pressure  
Sea Level Pressure 29.91 in    
Wind  
Wind Speed 6 mph (SW)    
Max Wind Speed 14 mph    
Max Gust Speed 18 mph    
Visibility 9 miles    
Events      
T = Trace of Precipitation, MM = Missing Value Source: NWS Daily Summary

Daily Weather History Graph

Daily Weather History Graph

Search for Another Location

Airport or City:

Trip Planner

Search our weather history database for the weather conditions in past years. The results will help you decide how hot, cold, wet, or windy it might be!

Date:

Astronomy

Jul. 07, 2012 Rise Set
Actual Time 5:50 AM EDT 8:41 PM EDT
Civil Twilight 5:18 AM EDT 9:13 PM EDT
Nautical Twilight 4:37 AM EDT 9:53 PM EDT
Astronomical Twilight 3:51 AM EDT 10:40 PM EDT
Moon 11:00 PM EDT (7/7) 10:12 AM EDT (7/7)
Length of Visible Light 15h 55m
Length of Day
14h 50m
Waning Gibbous, 82% of the Moon is Illuminated
Jul 7
Waning Gibbous
Jul 10
Last Quarter
Jul 19
New
Jul 26
First Quarter
Aug 1
Full

Hourly Weather History & Observations

Time (EDT) Temp. Heat Index Dew Point Humidity Pressure Visibility Wind Dir Wind Speed Gust Speed Precip Events Conditions
12:53 AM 81.0 °F 85.2 °F 72.0 °F 74% 29.96 in 8.0 mi Calm Calm - N/A   Clear
1:53 AM 81.0 °F 85.2 °F 72.0 °F 74% 29.95 in 8.0 mi SSE 4.6 mph - N/A   Clear
2:53 AM 80.1 °F 83.6 °F 71.1 °F 74% 29.94 in 8.0 mi South 3.5 mph - N/A   Clear
3:53 AM 79.0 °F - 72.0 °F 79% 29.94 in 7.0 mi Calm Calm - N/A   Clear
4:53 AM 75.9 °F - 71.1 °F 85% 29.94 in 6.0 mi SSE 5.8 mph - N/A   Haze
5:53 AM 77.0 °F - 72.0 °F 84% 29.95 in 5.0 mi SSE 3.5 mph - N/A   Haze
6:53 AM 77.0 °F - 72.0 °F 84% 29.95 in 4.0 mi SSE 4.6 mph - N/A   Haze
7:53 AM 81.0 °F 84.9 °F 71.1 °F 72% 29.95 in 7.0 mi South 6.9 mph - N/A   Clear
8:53 AM 84.0 °F 89.0 °F 71.1 °F 65% 29.96 in 8.0 mi SW 3.5 mph - N/A   Clear
9:53 AM 86.0 °F 92.2 °F 72.0 °F 63% 29.95 in 8.0 mi Variable 4.6 mph - N/A   Clear
10:53 AM 90.0 °F 96.4 °F 71.1 °F 54% 29.95 in 10.0 mi WSW 6.9 mph - N/A   Clear
11:53 AM 93.9 °F 97.0 °F 66.0 °F 40% 29.95 in 10.0 mi WNW 12.7 mph - N/A   Clear
12:53 PM 96.1 °F 99.3 °F 66.0 °F 37% 29.94 in 10.0 mi WNW 8.1 mph - N/A   Clear
1:53 PM 98.1 °F 100.7 °F 64.0 °F 33% 29.91 in 10.0 mi West 6.9 mph 16.1 mph N/A   Clear
2:53 PM 99.0 °F 103.5 °F 66.9 °F 35% 29.89 in 10.0 mi WNW 11.5 mph - N/A   Clear
3:53 PM 100.0 °F 105.6 °F 68.0 °F 35% 29.86 in 10.0 mi West 6.9 mph - N/A   Clear
4:53 PM 98.1 °F 104.4 °F 69.1 °F 39% 29.85 in 10.0 mi SSW 8.1 mph - N/A   Clear
5:53 PM 100.0 °F 107.0 °F 69.1 °F 37% 29.85 in 10.0 mi WSW 9.2 mph - N/A   Clear
6:53 PM 98.1 °F 102.4 °F 66.9 °F 36% 29.86 in 10.0 mi West 9.2 mph - N/A   Clear
7:53 PM 96.1 °F 101.0 °F 68.0 °F 40% 29.86 in 10.0 mi SW 4.6 mph - N/A   Clear
8:53 PM 93.9 °F 100.3 °F 70.0 °F 46% 29.87 in 10.0 mi SW 4.6 mph - N/A   Clear
9:53 PM 91.9 °F 97.4 °F 70.0 °F 48% 29.87 in 10.0 mi Calm Calm - N/A   Clear
10:53 PM 87.1 °F 91.3 °F 69.1 °F 55% 29.88 in 10.0 mi ENE 5.8 mph - N/A   Clear
11:53 PM 88.0 °F 91.4 °F 68.0 °F 51% 29.88 in 10.0 mi SSE 3.5 mph - N/A   Clear